Mobile Downtown Airport

Jump to: basic info | weather | frequencies | runways | comments

Related pages: nearby airports | nearby navaids | notams | map

Basic information (top)

Codes: BFM KBFM
Location: lon 30.626801, lat -88.068100, elev 26 ft / 8 m msl
Status: medium_airport
Scheduled airline service: no
Links: Wikipedia Mobile

Weather (top)

Current conditions (rec'd 2015/01/27 15:53Z):

KBFM 271553Z 33012KT 10SM CLR 16/04 A3012

Airport forecast (rec'd 2015/01/27 12:45Z):

TAF KBFM 271140Z 2712/2812 25007KT P6SM SKC 
     FM271500 31009KT P6SM SKC 
     FM280000 32007KT P6SM SKC 
     FM280900 36007KT P6SM SKC

Frequencies (top)

Verify before use: may be inaccurate or out of date.

A/D: 118.5 MHz (APP/DEP)
ATIS: 135.575 MHz (ATIS)
CTAF: 118.8 MHz (CTAF)
GND: 121.7 MHz (GND)
RDO: 112.8 MHz (ANNISTON RDO)
TWR: 118.8 MHz (DOWNTOWN TWR)
UNIC: 122.95 MHz (UNICOM)

Runways (top)

14/32: 9,618 x 150 ft (2,932 x 46 m) — other (PEM) — lighted

18/36: 7,800 x 150 ft (2,377 x 46 m) — other (PEM) — lighted

Latest comments (top)

No comments yet for Mobile Downtown Airport

More... (top)

See also NOTAMs and nearby airports and navaids, or visit the Mobile Downtown Airport page at the main OurAirports website..